| time (UTC) | temp F | wind direction | speed knots | gust knots | rain 1hr in | rain 24hr in | rain mn in | humidity % | barometer mb |
| 20260903060058 | 77 | 115 | 0.0 | 2.6 | 0.00 | 0.00 | 0.00 | 79 | 1013.7 |
| 20260903054557 | 77 | 127 | 0.0 | 1.7 | 0.00 | 0.00 | 0.00 | 80 | 1013.9 |
| 20260903053053 | 78 | 44 | 1.7 | 7.0 | 0.00 | 0.00 | 0.00 | 78 | 1014.0 |
| 20260903051549 | 81 | 76 | 4.3 | 10.4 | 0.00 | 0.00 | 0.00 | 78 | 1013.9 |
| 20260903050044 | 81 | 203 | 0.9 | 6.1 | 0.00 | 0.00 | 0.00 | 83 | 1012.7 |
| 20260903044543 | 81 | 186 | 2.6 | 7.0 | 0.00 | 0.00 | 0.00 | 83 | 1012.5 |
| 20260903043044 | 82 | 230 | 0.9 | 6.1 | 0.00 | 0.00 | 0.00 | 82 | 1012.2 |
| 20260903041543 | 82 | 188 | 1.7 | 6.1 | 0.00 | 0.00 | 0.00 | 81 | 1012.2 |
| 20260903040036 | 82 | 233 | 0.9 | 7.8 | 0.00 | 0.00 | 0.00 | 81 | 1012.1 |
| 20260903034542 | 82 | 210 | 3.5 | 8.7 | 0.00 | 0.00 | 0.00 | 81 | 1012.0 |
| 20260903033034 | 82 | 211 | 3.5 | 9.6 | 0.00 | 0.00 | 0.00 | 80 | 1011.8 |
| 20260903031534 | 82 | 224 | 3.5 | 9.6 | 0.00 | 0.00 | 0.00 | 80 | 1011.4 |
| 20260903030033 | 83 | 185 | 4.3 | 10.4 | 0.00 | 0.00 | 0.00 | 79 | 1011.3 |
| 20260903024530 | 83 | 214 | 4.3 | 12.2 | 0.00 | 0.00 | 0.00 | 78 | 1011.8 |
| 20260903023029 | 83 | 233 | 4.3 | 10.4 | 0.00 | 0.00 | 0.00 | 78 | 1012.1 |
| 20260903021528 | 83 | 131 | 1.7 | 6.1 | 0.00 | 0.00 | 0.00 | 77 | 1012.2 |
| 20260903020054 | 83 | 198 | 2.6 | 7.0 | 0.00 | 0.00 | 0.00 | 76 | 1012.2 |
| 20260903014511 | 83 | 212 | 2.6 | 6.1 | 0.00 | 0.00 | 0.00 | 76 | 1012.2 |
| 20260903013053 | 83 | 216 | 2.6 | 5.2 | 0.00 | 0.00 | 0.00 | 76 | 1012.3 |
| 20260903011557 | 84 | 181 | 1.7 | 5.2 | 0.00 | 0.00 | 0.00 | 75 | 1012.4 |
| 20260903010052 | 84 | 235 | 2.6 | 6.1 | 0.00 | 0.00 | 0.00 | 75 | 1012.2 |
| 20260903004551 | 84 | 200 | 2.6 | 5.2 | 0.00 | 0.00 | 0.00 | 74 | 1012.1 |
| 20260903003049 | 85 | 193 | 1.7 | 4.3 | 0.00 | 0.00 | 0.00 | 74 | 1012.1 |
| 20260903001551 | 86 | 177 | 2.6 | 4.3 | 0.00 | 0.00 | 0.00 | 72 | 1012.2 |
| 20260903000050 | 87 | 167 | 0.0 | 4.3 | 0.00 | 0.00 | 0.00 | 70 | 1012.2 |
| 20260902234559 | 88 | 243 | 2.6 | 7.0 | 0.00 | 0.00 | 0.00 | 67 | 1012.1 |
| 20260902233047 | 89 | 202 | 2.6 | 9.6 | 0.00 | 0.00 | 0.00 | 65 | 1011.9 |
| 20260902231545 | 90 | 235 | 2.6 | 8.7 | 0.00 | 0.00 | 0.00 | 64 | 1012.0 |
| 20260902230048 | 90 | 221 | 2.6 | 8.7 | 0.00 | 0.00 | 0.00 | 63 | 1011.9 |
| 20260902224545 | 91 | 295 | 3.5 | 7.8 | 0.00 | 0.00 | 0.00 | 61 | 1011.7 |
| 20260902223043 | 91 | 179 | 2.6 | 6.1 | 0.00 | 0.00 | 0.00 | 60 | 1011.7 |
| 20260902221540 | 92 | 251 | 3.5 | 7.8 | 0.00 | 0.00 | 0.00 | 60 | 1011.9 |
| 20260902220041 | 92 | 244 | 5.2 | 12.2 | 0.00 | 0.00 | 0.00 | 57 | 1012.2 |
| 20260902214538 | 93 | 219 | 4.3 | 10.4 | 0.00 | 0.00 | 0.00 | 58 | 1012.3 |
| 20260902213037 | 94 | 179 | 2.6 | 10.4 | 0.00 | 0.00 | 0.00 | 56 | 1012.3 |
| 20260902211535 | 93 | 254 | 2.6 | 12.2 | 0.00 | 0.00 | 0.00 | 56 | 1012.5 |
| 20260902210034 | 93 | 238 | 3.5 | 9.6 | 0.00 | 0.00 | 0.00 | 57 | 1012.6 |
| 20260902204531 | 94 | 187 | 2.6 | 10.4 | 0.00 | 0.00 | 0.00 | 57 | 1012.7 |
| 20260902203030 | 93 | 228 | 6.1 | 9.6 | 0.00 | 0.00 | 0.00 | 56 | 1012.9 |
| 20260902201529 | 94 | 229 | 4.3 | 11.3 | 0.00 | 0.00 | 0.00 | 57 | 1013.0 |
| 20260902200026 | 94 | 190 | 3.5 | 11.3 | 0.00 | 0.00 | 0.00 | 56 | 1013.1 |
| 20260902194525 | 94 | 305 | 3.5 | 9.6 | 0.00 | 0.00 | 0.00 | 56 | 1013.2 |
| 20260902193022 | 94 | 268 | 3.5 | 10.4 | 0.00 | 0.00 | 0.00 | 58 | 1013.4 |
| 20260902191520 | 94 | 257 | 2.6 | 8.7 | 0.00 | 0.00 | 0.00 | 61 | 1013.4 |
| 20260902190025 | 93 | 241 | 4.3 | 11.3 | 0.00 | 0.00 | 0.00 | 60 | 1013.7 |
| 20260902184515 | 93 | 207 | 4.3 | 10.4 | 0.00 | 0.00 | 0.00 | 60 | 1013.9 |
| 20260902183015 | 92 | 250 | 5.2 | 9.6 | 0.00 | 0.00 | 0.00 | 61 | 1013.9 |
| 20260902181611 | 92 | 202 | 2.6 | 11.3 | 0.00 | 0.00 | 0.00 | 63 | 1014.0 |
| 20260902180009 | 92 | 272 | 5.2 | 10.4 | 0.00 | 0.00 | 0.00 | 60 | 1014.2 |
| 20260902174508 | 92 | 213 | 4.3 | 9.6 | 0.00 | 0.00 | 0.00 | 62 | 1014.4 |
| 20260902173006 | 91 | 231 | 3.5 | 7.0 | 0.00 | 0.00 | 0.00 | 64 | 1014.6 |
| 20260902171503 | 91 | 167 | 4.3 | 7.8 | 0.00 | 0.00 | 0.00 | 65 | 1014.7 |
| 20260902170002 | 91 | 247 | 4.3 | 7.8 | 0.00 | 0.00 | 0.00 | 66 | 1014.9 |
| 20260902164601 | 90 | 269 | 2.6 | 7.8 | 0.00 | 0.00 | 0.00 | 69 | 1015.2 |
| 20260902163057 | 88 | 233 | 4.3 | 7.8 | 0.00 | 0.00 | 0.00 | 70 | 1015.2 |
| 20260902161555 | 88 | 160 | 3.5 | 6.1 | 0.00 | 0.00 | 0.00 | 71 | 1015.3 |
| 20260902160112 | 88 | 197 | 2.6 | 7.0 | 0.00 | 0.00 | 0.00 | 70 | 1015.2 |
| 20260902154556 | 87 | 198 | 2.6 | 7.0 | 0.00 | 0.00 | 0.00 | 71 | 1015.3 |
| 20260902153049 | 87 | 195 | 1.7 | 7.0 | 0.00 | 0.00 | 0.00 | 72 | 1015.2 |
| 20260902151544 | 86 | 226 | 1.7 | 7.0 | 0.00 | 0.00 | 0.00 | 74 | 1015.2 |
| 20260902150040 | 85 | 188 | 1.7 | 5.2 | 0.00 | 0.00 | 0.00 | 75 | 1015.1 |
| 20260902144540 | 85 | 181 | 0.9 | 6.1 | 0.00 | 0.00 | 0.00 | 77 | 1015.0 |
| 20260902143035 | 84 | 243 | 2.6 | 6.1 | 0.00 | 0.00 | 0.00 | 78 | 1015.0 |
| 20260902141530 | 83 | 198 | 3.5 | 6.1 | 0.00 | 0.00 | 0.00 | 80 | 1015.0 |
| 20260902140035 | 82 | 241 | 2.6 | 9.6 | 0.00 | 0.00 | 0.00 | 81 | 1015.1 |
| 20260902134526 | 81 | 199 | 3.5 | 7.0 | 0.00 | 0.00 | 0.00 | 82 | 1014.9 |
| 20260902133022 | 80 | 281 | 2.6 | 8.7 | 0.00 | 0.00 | 0.00 | 84 | 1015.0 |
| 20260902131517 | 79 | 172 | 4.3 | 9.6 | 0.00 | 0.00 | 0.00 | 86 | 1014.9 |
| 20260902130015 | 79 | 202 | 2.6 | 8.7 | 0.00 | 0.00 | 0.00 | 88 | 1015.0 |
| 20260902124512 | 78 | 222 | 3.5 | 7.0 | 0.00 | 0.00 | 0.00 | 89 | 1015.1 |
| 20260902123021 | 77 | 224 | 3.5 | 7.8 | 0.00 | 0.00 | 0.00 | 90 | 1015.0 |
| 20260902121509 | 77 | 255 | 1.7 | 6.1 | 0.00 | 0.00 | 0.00 | 90 | 1014.9 |
| 20260902120009 | 77 | 210 | 0.9 | 5.2 | 0.00 | 0.00 | 0.00 | 91 | 1014.9 |
| 20260902114505 | 77 | 189 | 0.9 | 4.3 | 0.00 | 0.00 | 0.00 | 92 | 1014.7 |
| 20260902113005 | 76 | 212 | 1.7 | 4.3 | 0.00 | 0.00 | 0.00 | 92 | 1014.6 |
| 20260902111511 | 76 | 176 | 0.9 | 4.3 | 0.00 | 0.00 | 0.00 | 91 | 1014.4 |
| 20260902110012 | 77 | 250 | 2.6 | 6.1 | 0.00 | 0.00 | 0.00 | 91 | 1014.5 |
| 20260902104502 | 77 | 191 | 2.6 | 6.1 | 0.00 | 0.00 | 0.00 | 91 | 1014.4 |
| 20260902103002 | 77 | 226 | 2.6 | 7.0 | 0.00 | 0.00 | 0.00 | 91 | 1014.3 |
| 20260902101501 | 77 | 150 | 2.6 | 6.1 | 0.00 | 0.00 | 0.00 | 91 | 1014.3 |
| 20260902100001 | 76 | 217 | 2.6 | 6.1 | 0.00 | 0.00 | 0.00 | 91 | 1014.4 |
| 20260902094600 | 76 | 231 | 3.5 | 7.0 | 0.00 | 0.00 | 0.00 | 92 | 1014.4 |
| 20260902093059 | 76 | 226 | 2.6 | 5.2 | 0.00 | 0.00 | 0.00 | 92 | 1014.3 |
| 20260902091601 | 76 | 200 | 1.7 | 5.2 | 0.00 | 0.00 | 0.00 | 92 | 1014.4 |
| 20260902090059 | 76 | 151 | 2.6 | 5.2 | 0.00 | 0.00 | 0.00 | 92 | 1014.4 |
| 20260902084602 | 77 | 179 | 2.6 | 6.1 | 0.00 | 0.00 | 0.00 | 91 | 1014.3 |
| 20260902083106 | 77 | 164 | 2.6 | 6.1 | 0.00 | 0.00 | 0.00 | 91 | 1014.3 |
| 20260902081556 | 77 | 172 | 2.6 | 4.3 | 0.00 | 0.00 | 0.00 | 92 | 1014.3 |
| 20260902080112 | 77 | 178 | 1.7 | 3.5 | 0.00 | 0.00 | 0.00 | 92 | 1014.3 |
| 20260902074554 | 76 | 173 | 0.9 | 3.5 | 0.00 | 0.00 | 0.00 | 91 | 1014.3 |
| 20260902073053 | 77 | 185 | 1.7 | 4.3 | 0.00 | 0.00 | 0.00 | 91 | 1014.1 |
| 20260902071552 | 77 | 164 | 1.7 | 5.2 | 0.00 | 0.00 | 0.00 | 90 | 1014.1 |
| 20260902070051 | 77 | 181 | 1.7 | 4.3 | 0.00 | 0.00 | 0.00 | 90 | 1014.1 |
| 20260902064551 | 77 | 161 | 0.9 | 4.3 | 0.00 | 0.00 | 0.00 | 89 | 1014.2 |
| 20260902063051 | 77 | 183 | 0.0 | 4.3 | 0.00 | 0.00 | 0.00 | 89 | 1014.2 |